Wind_Speed
14 14 13 12 11 10 9 9 8 8 8 8 9 9 10 11 11 12 13 13 14 14 15 16 17 17 17 18 18 19 19 20 20 20 20 20 21 21 21 22 22 22 22
15 14 13 13 12 11 10 10 10 9 9 10 10 11 11 12 12 13 13 14 15 15 16 17 17 17 18 18 18 18 19 20 20 20 20 21 21 21 22 23 23 23 23
15 15 14 13 12 12 11 11 11 11 11 11 11 12 12 13 13 14 14 15 15 16 16 16 17 17 17 17 18 18 19 20 20 20 21 21 22 22 22 23 23 23 23
16 15 14 13 13 12 12 11 11 12 12 12 12 12 13 14 14 15 15 16 16 16 16 17 17 17 18 19 19 20 20 21 21 21 22 22 22 22 23 23 24 24 25
16 15 14 14 13 12 12 12 12 12 12 12 13 13 14 14 15 15 16 16 16 17 17 18 18 19 19 20 20 20 21 22 22 22 23 23 23 23 24 24 25 25 26
16 15 14 14 13 13 13 12 12 12 12 13 14 14 15 15 15 16 16 16 17 17 18 19 19 20 20 20 21 21 21 22 22 23 23 24 24 25 25 26 26 27 27
15 15 14 14 13 13 13 13 13 13 14 15 15 15 16 16 17 17 17 18 18 19 20 20 21 21 21 21 22 22 22 23 23 24 24 25 26 26 26 27 27 28 28
15 15 14 14 14 13 13 14 14 15 15 16 16 16 17 17 17 18 18 19 19 20 20 21 22 22 22 23 23 23 24 24 25 25 26 26 27 27 28 28 28 28 29
14 14 14 14 14 14 14 14 15 15 16 16 16 17 17 17 18 18 19 20 20 21 22 22 23 23 23 24 24 25 25 26 26 27 27 27 28 28 29 29 29 30 30
14 14 14 14 14 14 14 15 15 15 16 16 16 17 17 18 19 19 20 21 21 22 23 23 24 24 25 25 25 26 26 27 27 28 28 28 29 29 30 30 30 31 31
15 14 14 15 15 15 15 15 16 16 16 17 17 18 18 19 19 20 21 22 23 24 24 25 25 26 26 26 27 27 27 28 29 29 29 29 30 30 31 31 31 32 32
16 16 16 16 16 16 16 16 17 17 17 18 18 19 20 21 21 22 23 24 24 25 26 26 27 27 28 28 28 29 29 29 30 31 31 31 31 31 31 32 32 32 33
18 17 17 17 17 17 17 18 18 18 19 20 20 21 22 23 23 24 24 25 26 27 27 28 28 28 29 29 30 30 30 31 31 31 32 32 32 33 33 33 33 34 34
19 19 19 18 18 19 19 20 20 20 21 21 22 23 23 24 25 26 27 27 28 28 29 29 29 30 30 31 32 32 32 32 32 32 33 34 34 34 34 34 34 35 35
21 21 20 20 20 21 21 21 22 22 23 23 24 24 25 26 27 28 28 29 30 30 31 31 31 31 32 32 33 33 34 33 33 34 34 35 35 35 35 34 35 35 36
22 22 22 22 22 22 23 23 24 24 25 25 26 27 27 28 29 30 30 31 31 32 32 32 33 33 34 34 34 34 34 34 34 35 35 35 36 36 36 36 36 37 37
25 25 24 24 24 24 25 25 26 27 27 28 29 29 30 30 31 31 32 33 33 33 34 34 34 35 35 35 35 35 35 35 35 35 36 36 37 37 37 38 38 38 38
28 28 27 27 26 26 27 28 28 29 30 31 31 32 32 33 33 34 34 34 34 35 35 35 35 36 36 36 36 36 36 36 36 37 37 37 38 38 39 39 39 40 40
31 30 30 30 30 30 30 30 30 31 32 33 34 34 35 35 35 35 35 35 36 36 36 36 37 37 37 37 37 37 37 38 38 38 38 39 39 39 40 40 41 41 42
34 33 33 33 33 33 33 33 33 34 35 35 36 37 37 37 37 37 37 37 37 37 37 37 37 37 37 37 37 38 38 39 39 39 39 40 40 40 40 41 41 42 43
36 36 35 36 35 36 36 36 36 36 37 37 38 38 38 39 38 38 38 38 38 38 38 38 38 38 38 38 38 39 39 39 39 40 40 40 41 41 42 42 43 43 44
38 38 38 38 38 38 38 38 38 38 38 38 39 39 40 40 39 39 39 39 39 39 40 40 40 39 39 39 39 39 39 39 40 41 42 42 42 42 43 43 44 44 45
40 40 40 40 40 40 40 40 40 40 39 39 39 40 41 40 40 39 40 40 40 40 40 41 40 40 39 39 40 40 40 40 40 41 42 42 43 43 43 44 44 45 45
42 42 42 41 41 41 41 41 40 41 40 40 41 41 41 41 40 40 40 41 40 40 41 40 40 39 39 39 40 40 40 41 41 41 42 43 43 44 44 45 46 46 46
41 41 41 41 41 41 41 41 41 41 41 41 41 41 41 41 41 41 41 41 40 41 41 40 40 39 39 40 40 40 40 41 41 42 41 43 44 45 45 46 46 46 46
39 40 40 40 40 39 39 39 40 40 40 40 41 41 41 41 41 41 41 41 40 40 40 40 39 39 39 40 40 40 41 41 42 42 42 43 44 44 45 46 46 46 46
Wind_Direction
220 220 221 224 224 223 226 230 233 240 248 257 266 272 275 277 279 281 282 283 285 286 287 289 290 291 292 292 293 293 292 290 290 290 290 289 288 286 285 284 283 281 280
221 222 224 226 226 226 230 234 239 245 254 261 266 270 273 277 280 281 282 283 285 287 288 289 290 291 292 293 294 293 292 291 291 291 291 290 289 288 287 286 285 284 283
221 222 223 226 228 231 235 240 245 250 257 262 265 269 273 276 280 281 282 284 286 288 289 290 291 292 293 293 293 293 292 292 291 291 291 290 289 288 287 287 286 286 284
221 222 224 226 229 234 239 245 250 253 257 261 265 268 272 275 278 281 283 285 287 288 289 290 292 293 293 294 294 293 292 291 291 291 290 290 290 289 288 288 287 286 285
220 221 223 226 229 235 243 249 253 256 260 263 266 270 274 276 279 282 284 285 286 287 289 291 292 292 293 293 294 293 292 291 291 291 291 291 290 289 289 288 287 286 285
219 221 223 227 232 239 246 250 254 257 261 265 268 271 273 276 279 282 284 285 287 289 290 291 292 293 294 294 293 293 293 292 291 292 291 291 290 290 289 289 288 287 285
221 223 227 231 235 240 246 249 253 258 262 266 269 272 274 277 279 281 283 285 287 289 290 291 292 292 293 293 293 293 292 292 292 292 292 291 291 290 289 289 288 286 285
223 227 230 234 238 242 246 250 254 258 263 266 269 272 275 277 279 281 284 286 288 290 291 291 292 292 292 293 293 293 292 291 291 291 290 290 290 290 289 288 287 286 285
223 226 230 234 238 242 246 251 256 261 266 269 272 275 277 279 281 283 286 288 289 291 292 293 293 293 292 292 292 292 292 291 291 290 290 290 290 289 288 287 287 286 285
227 230 234 238 241 245 249 255 260 265 269 273 275 277 279 281 283 286 288 290 291 293 294 294 294 293 292 292 292 292 292 291 291 291 290 290 290 289 288 287 286 286 285
232 235 239 243 246 250 254 259 263 267 271 274 276 278 280 282 285 287 289 291 292 293 294 294 294 293 292 292 292 291 291 291 290 290 290 290 289 289 288 287 286 286 285
238 239 243 247 251 255 258 262 265 268 270 273 276 279 281 284 286 289 290 291 293 294 295 295 294 293 292 292 291 291 291 290 290 289 289 289 288 288 287 287 286 286 285
243 244 246 250 255 259 262 265 268 270 272 274 277 280 282 284 286 288 290 291 293 294 295 295 295 294 293 292 292 291 290 290 289 289 289 289 288 288 287 286 285 285 284
244 247 250 253 258 262 265 268 270 272 274 276 278 281 283 285 287 289 291 292 293 294 295 295 294 294 293 292 292 291 291 290 289 289 289 288 288 288 287 286 285 285 284
247 250 253 256 260 264 267 270 272 274 276 277 280 282 284 286 288 290 291 292 292 293 294 294 294 293 292 292 292 292 291 290 289 289 288 288 288 287 287 286 286 285 284
249 252 255 258 261 265 269 271 273 275 277 279 281 283 285 286 289 290 291 292 292 293 293 293 293 293 292 291 291 291 290 289 289 288 288 287 287 286 286 286 285 285 284
253 254 257 260 263 266 269 272 274 276 277 279 281 283 285 286 287 289 289 290 292 292 293 293 293 292 292 291 290 290 289 289 288 288 288 287 286 286 286 286 285 284 284
256 258 260 262 264 265 268 271 274 276 278 280 282 283 284 285 287 288 287 289 290 291 291 292 292 291 291 290 290 290 290 289 288 288 288 287 287 287 287 286 286 285 285
257 259 262 264 265 267 269 271 274 276 278 280 282 283 283 285 286 287 287 288 289 290 290 291 291 291 290 289 290 290 290 290 289 289 288 288 287 287 287 287 287 286 286
258 260 262 264 266 268 270 272 273 275 277 279 281 282 283 284 284 285 285 286 288 289 289 289 289 289 289 290 290 290 291 290 290 289 289 288 288 288 288 288 287 287 287
259 261 262 265 267 269 271 272 273 275 277 279 280 281 282 283 283 283 284 285 286 287 288 287 287 287 289 290 290 290 290 290 290 290 290 289 289 289 289 289 288 288 288
259 261 262 264 266 268 270 272 273 275 277 278 280 281 281 281 282 282 283 283 285 286 286 286 286 286 288 290 290 290 290 290 290 291 291 291 290 290 290 290 290 290 289
260 262 263 264 266 268 270 272 273 275 277 278 278 278 279 280 281 281 281 282 283 284 285 286 286 286 288 289 289 289 289 289 291 292 292 292 292 292 292 291 291 291 290
260 261 263 264 266 267 269 271 272 274 275 275 276 277 278 279 280 279 279 280 281 282 283 284 285 285 287 288 289 289 290 290 291 292 292 292 293 293 293 293 292 292 291
260 261 262 264 265 267 269 270 271 273 273 274 274 275 276 277 278 278 279 279 280 282 283 284 285 286 287 288 289 289 290 291 291 292 293 294 295 295 294 294 293 293 292
259 260 262 263 264 266 268 269 270 271 272 272 273 274 275 276 276 277 278 278 280 282 283 284 284 285 287 288 289 290 290 291 292 293 293 294 296 296 295 295 294 294 294
Height
5876 5877 5878 5879 5880 5881 5882 5883 5884 5884 5884 5885 5885 5885 5885 5885 5885 5885 5884 5884 5883 5882 5881 5880 5880 5879 5878 5877 5876 5875 5874 5872 5871 5870 5869 5868 5867 5866 5865 5864 5863 5862 5861
5874 5875 5877 5878 5879 5880 5880 5881 5882 5883 5883 5883 5884 5884 5883 5883 5883 5883 5882 5881 5881 5880 5879 5878 5877 5876 5875 5874 5873 5872 5871 5869 5868 5867 5866 5865 5864 5862 5861 5860 5859 5858 5857
5872 5873 5875 5876 5877 5878 5879 5880 5880 5881 5881 5882 5882 5882 5882 5881 5881 5880 5880 5879 5878 5877 5876 5876 5874 5874 5872 5872 5871 5869 5868 5866 5865 5864 5863 5861 5860 5859 5858 5856 5855 5854 5853
5870 5871 5873 5874 5875 5876 5877 5878 5878 5879 5879 5880 5880 5880 5879 5879 5879 5878 5877 5876 5876 5875 5874 5873 5872 5871 5870 5869 5868 5866 5865 5863 5862 5861 5859 5858 5857 5855 5854 5853 5851 5850 5849
5867 5869 5870 5872 5873 5874 5875 5875 5876 5877 5877 5877 5877 5877 5877 5877 5876 5875 5875 5874 5873 5872 5871 5870 5869 5868 5867 5866 5864 5863 5861 5860 5858 5857 5856 5854 5853 5852 5850 5849 5847 5846 5844
5865 5866 5868 5869 5871 5872 5872 5873 5874 5874 5875 5875 5875 5875 5874 5874 5873 5873 5872 5871 5870 5869 5868 5867 5866 5865 5863 5862 5861 5859 5858 5856 5854 5853 5852 5850 5849 5847 5846 5844 5843 5841 5840
5862 5864 5866 5867 5868 5869 5870 5871 5871 5872 5872 5872 5872 5872 5872 5871 5871 5870 5869 5868 5867 5866 5865 5864 5862 5861 5860 5859 5857 5856 5854 5852 5850 5849 5848 5846 5844 5843 5841 5839 5838 5836 5835
5860 5861 5863 5864 5865 5867 5867 5868 5869 5869 5869 5869 5869 5869 5868 5868 5867 5867 5866 5865 5864 5863 5862 5860 5859 5858 5856 5855 5853 5851 5850 5848 5846 5845 5843 5841 5840 5838 5836 5834 5833 5831 5830
5857 5859 5860 5861 5863 5864 5865 5865 5866 5866 5866 5866 5866 5866 5865 5865 5864 5863 5863 5862 5861 5859 5858 5856 5855 5853 5852 5850 5849 5847 5845 5843 5841 5840 5838 5836 5834 5833 5831 5829 5827 5826 5824
5855 5856 5857 5859 5860 5861 5861 5862 5863 5863 5863 5863 5863 5862 5862 5861 5861 5860 5859 5858 5857 5855 5854 5852 5850 5849 5847 5846 5844 5842 5840 5838 5836 5834 5833 5831 5829 5827 5825 5823 5821 5820 5818
5852 5853 5854 5856 5857 5857 5858 5859 5859 5859 5859 5859 5859 5859 5858 5858 5857 5856 5855 5854 5853 5851 5849 5848 5846 5844 5842 5841 5839 5837 5835 5833 5831 5829 5827 5825 5823 5821 5819 5817 5815 5813 5811
5849 5850 5851 5852 5853 5854 5855 5855 5855 5856 5856 5855 5855 5855 5854 5853 5853 5852 5851 5849 5848 5846 5845 5843 5841 5839 5837 5835 5833 5831 5829 5827 5825 5823 5820 5819 5817 5815 5813 5810 5808 5806 5804
5846 5847 5848 5849 5850 5850 5851 5851 5851 5852 5852 5851 5851 5851 5850 5849 5848 5847 5846 5845 5843 5841 5840 5838 5836 5834 5832 5830 5827 5825 5823 5821 5819 5816 5814 5812 5810 5808 5806 5804 5802 5800 5797
5842 5843 5844 5845 5846 5846 5847 5847 5847 5847 5847 5847 5847 5846 5845 5844 5843 5842 5841 5839 5838 5836 5834 5832 5830 5828 5826 5823 5821 5819 5817 5814 5812 5810 5807 5805 5803 5801 5798 5796 5794 5792 5790
5838 5839 5840 5841 5841 5842 5842 5842 5842 5842 5842 5842 5842 5841 5840 5839 5838 5836 5835 5834 5832 5830 5828 5826 5824 5822 5819 5817 5815 5812 5810 5808 5806 5803 5801 5798 5795 5793 5791 5789 5787 5784 5782
5833 5834 5835 5836 5837 5837 5837 5837 5838 5837 5837 5837 5836 5835 5834 5833 5832 5831 5829 5827 5826 5824 5822 5820 5818 5815 5813 5810 5808 5805 5803 5801 5798 5796 5794 5791 5788 5786 5783 5781 5779 5776 5774
5827 5829 5830 5831 5832 5832 5832 5832 5832 5832 5832 5831 5830 5829 5828 5827 5826 5824 5823 5821 5819 5817 5815 5813 5810 5808 5806 5803 5801 5798 5796 5793 5791 5788 5786 5783 5781 5778 5776 5773 5770 5768 5766
5821 5822 5824 5825 5826 5827 5827 5827 5826 5826 5825 5825 5824 5823 5822 5820 5819 5818 5816 5814 5812 5810 5808 5806 5803 5801 5798 5796 5793 5791 5788 5786 5783 5780 5778 5775 5773 5770 5767 5765 5762 5759 5757
5814 5815 5817 5818 5819 5820 5820 5820 5820 5820 5819 5818 5817 5816 5814 5813 5812 5810 5809 5807 5805 5803 5800 5798 5796 5793 5791 5788 5786 5783 5780 5778 5775 5772 5770 5767 5764 5762 5759 5756 5753 5750 5747
5806 5808 5809 5810 5812 5812 5812 5813 5812 5812 5811 5810 5809 5808 5807 5805 5804 5802 5801 5799 5797 5795 5793 5790 5788 5785 5783 5780 5778 5775 5772 5769 5766 5764 5761 5758 5755 5753 5750 5747 5744 5741 5738
5798 5800 5801 5802 5803 5803 5804 5804 5804 5803 5803 5802 5801 5800 5798 5797 5795 5794 5792 5790 5789 5787 5784 5782 5780 5777 5775 5772 5769 5767 5764 5760 5758 5755 5752 5749 5746 5743 5740 5737 5734 5731 5728
5790 5791 5792 5793 5794 5794 5795 5795 5795 5795 5794 5794 5792 5791 5789 5788 5787 5785 5783 5782 5780 5778 5776 5774 5771 5769 5766 5764 5761 5758 5755 5753 5749 5746 5743 5740 5736 5733 5730 5727 5724 5720 5717
5781 5782 5783 5784 5785 5785 5785 5785 5785 5785 5785 5785 5783 5781 5780 5779 5778 5776 5775 5773 5771 5769 5767 5765 5763 5761 5758 5755 5753 5750 5747 5744 5741 5737 5734 5730 5727 5723 5720 5717 5713 5710 5707
5771 5772 5774 5775 5775 5776 5776 5776 5776 5776 5776 5775 5774 5772 5771 5770 5769 5767 5766 5764 5762 5760 5758 5756 5754 5752 5749 5747 5744 5741 5738 5735 5732 5729 5725 5721 5717 5714 5710 5706 5703 5699 5696
5761 5762 5763 5764 5765 5766 5766 5767 5766 5766 5766 5765 5764 5763 5762 5761 5759 5758 5757 5755 5753 5752 5750 5748 5745 5743 5741 5738 5735 5732 5729 5726 5723 5720 5716 5712 5708 5704 5700 5696 5692 5689 5685
5751 5752 5753 5754 5755 5756 5756 5756 5756 5756 5755 5755 5754 5753 5752 5751 5750 5749 5747 5746 5744 5742 5741 5739 5737 5734 5732 5729 5726 5723 5720 5717 5714 5710 5707 5703 5699 5694 5689 5685 5681 5678 5674